{"data":{"norad_id":57673,"epoch":"2026-09-20T20:27:28.808928Z","epoch_age_seconds":100873,"freshness":"FRESH","line1":"1 57673U 23124L   26263.85241677  .00005615  00000+0  17725-3 0  9990","line2":"2 57673  53.1639  17.7369 0001859  42.9617 317.1530 15.34388996173481","mean_motion":15.34388996,"eccentricity":0.0001859,"inclination_deg":53.1639,"raan_deg":17.7369,"arg_perigee_deg":42.9617,"mean_anomaly_deg":317.153,"bstar":0.00017725,"rev_number":17348,"period_min":93.848431118441,"perigee_km":461.46422832878,"apogee_km":464.00766489033,"semimajor_km":6840.8729466096,"source":"CELESTRAK","updated_at":"2026-09-21T09:00:33.671677Z"}}